Waarnemingen

Advertentie
Mijn weer
Valencia/Manises, Spanje (8284): temperatuur & dauwpunt: 20.05.2020 11:00:00 - 26.05.2020 11:00:00 (CEST)Valencia/Manises, Spanje (8284): windsnelheid: 20.05.2020 11:00:00 - 26.05.2020 11:00:00 (CEST)Valencia/Manises, Spanje (8284): windrichting: 20.05.2020 11:00:00 - 26.05.2020 11:00:00 (CEST)Valencia/Manises, Spanje (8284): luchtdruk: 20.05.2020 11:00:00 - 26.05.2020 11:00:00 (CEST)Valencia/Manises, Spanje (8284): zicht: 20.05.2020 11:00:00 - 26.05.2020 11:00:00 (CEST)Valencia/Manises, Spanje (8284): neerslag: 20.05.2020 11:00:00 - 26.05.2020 11:00:00 (CEST)
Datum & Tijd tt [°C] td [°C] ff [km/u] ff [kn] dd ppp [hPa] vv [km] rr [mm]
26.05.2020 11:00:00 - - - - - - - -
26.05.2020 10:00:00 21,1 16,3 5 3 W 1026,5 - -
26.05.2020 09:00:00 19,5 15,6 8 4 N 1026,2 - -
26.05.2020 08:00:00 18,0 14,9 8 4 WNW 1026,6 35 -
26.05.2020 07:00:00 17,3 15,1 4 2 W 1026,1 - -
26.05.2020 06:00:00 16,9 15,2 5 3 W 1025,4 - -
26.05.2020 05:00:00 16,4 14,6 5 3 W 1025,2 15 -
26.05.2020 04:00:00 16,1 14,5 11 6 WZW 1025,6 - -
26.05.2020 03:00:00 17,1 15,1 4 2 NNW 1025,7 - -
26.05.2020 02:00:00 17,4 15,4 8 4 NW 1026,3 15 -
26.05.2020 01:00:00 18,0 15,4 9 5 W 1026,7 - -
26.05.2020 00:00:00 19,6 15,5 5 3 N 1026,6 - -
25.05.2020 23:00:00 20,1 15,3 8 4 O 1026,2 15 -
25.05.2020 22:00:00 20,3 15,9 13 7 O 1025,3 - -
25.05.2020 21:00:00 21,2 14,6 18 10 ONO 1025,0 - -
25.05.2020 20:00:00 23,5 11,7 15 8 O 1024,3 30 -
25.05.2020 19:00:00 23,0 12,3 13 7 OZO 1024,1 - -
25.05.2020 18:00:00 23,6 12,1 11 6 ZZO 1024,4 - -
25.05.2020 17:00:00 24,4 12,1 11 6 ZO 1024,9 30 -
25.05.2020 16:00:00 23,8 13,1 11 6 OZO 1025,5 - -
25.05.2020 15:00:00 24,6 13,0 11 6 O 1026,4 - -
25.05.2020 14:00:00 25,6 13,4 9 5 ONO 1026,8 30 -
25.05.2020 13:00:00 24,7 13,2 11 6 O 1026,9 - -
25.05.2020 12:00:00 23,8 13,6 11 6 O 1026,9 - -
25.05.2020 11:00:00 22,9 14,1 9 5 O 1027,1 25 -
25.05.2020 10:00:00 21,4 14,2 5 3 ONO 1026,9 - -
25.05.2020 09:00:00 19,2 14,6 9 5 NNW 1026,7 - -
25.05.2020 08:00:00 16,8 14,5 4 2 WNW 1026,4 40 -
25.05.2020 07:00:00 15,2 13,9 8 4 WNW 1026,2 - -
25.05.2020 06:00:00 15,4 13,8 5 3 W 1025,9 - -
25.05.2020 05:00:00 16,0 14,2 8 4 W 1025,7 20 -
25.05.2020 04:00:00 16,8 14,6 2 1 WZW 1026,1 - -
25.05.2020 03:00:00 16,9 14,5 5 3 W 1026,2 - -
25.05.2020 02:00:00 18,2 14,9 8 4 NNW 1026,5 20 -
25.05.2020 01:00:00 19,3 15,0 4 2 N 1027,0 - -
25.05.2020 00:00:00 20,0 14,6 8 4 N 1027,3 - -
24.05.2020 23:00:00 20,6 13,6 9 5 ONO 1027,4 20 -
24.05.2020 22:00:00 20,5 14,2 11 6 O 1026,7 - -
24.05.2020 21:00:00 20,9 15,2 13 7 O 1026,6 - -
24.05.2020 20:00:00 21,8 15,5 15 8 ONO 1026,4 35 -
24.05.2020 19:00:00 22,4 15,5 16 9 O 1026,4 - -
24.05.2020 18:00:00 23,5 15,5 15 8 O 1026,8 - -
24.05.2020 17:00:00 23,9 16,1 18 10 ONO 1026,8 35 -
24.05.2020 16:00:00 24,4 16,6 18 10 O 1027,1 - -
24.05.2020 15:00:00 24,3 16,3 15 8 O 1027,6 - -
24.05.2020 14:00:00 24,4 16,9 18 10 O 1027,9 35 -
24.05.2020 13:00:00 24,0 16,4 21 11 O 1028,2 - -
24.05.2020 12:00:00 23,7 16,9 18 10 O 1028,3 - -
24.05.2020 11:00:00 23,2 17,0 15 8 O 1028,3 30 -
24.05.2020 10:00:00 23,1 17,2 16 9 O 1028,5 - -
24.05.2020 09:00:00 21,8 17,0 16 9 ONO 1028,3 - -
24.05.2020 08:00:00 21,1 16,9 16 9 NO 1028,0 20 -
24.05.2020 07:00:00 20,5 17,5 11 6 NO 1027,6 - -
24.05.2020 06:00:00 20,6 17,6 13 7 NO 1027,3 - -
24.05.2020 05:00:00 20,8 18,0 11 6 NO 1027,3 14 -
24.05.2020 04:00:00 20,6 18,2 11 6 NO 1027,3 - -
24.05.2020 03:00:00 20,7 18,5 11 6 ONO 1027,2 - -
24.05.2020 02:00:00 21,0 18,2 9 5 NO 1027,4 14 -
24.05.2020 01:00:00 21,4 18,3 9 5 O 1027,2 - -
24.05.2020 00:00:00 21,5 17,5 5 3 O 1026,7 - -
23.05.2020 23:00:00 21,9 16,6 8 4 O 1025,8 14 -
23.05.2020 22:00:00 22,7 16,5 11 6 ONO 1025,0 - -
23.05.2020 21:00:00 24,0 14,1 15 8 ONO 1023,9 - -
23.05.2020 20:00:00 24,5 13,8 18 10 O 1023,5 40 -
23.05.2020 19:00:00 25,6 15,2 22 12 ONO 1023,4 - -
23.05.2020 18:00:00 26,5 16,4 18 10 ONO 1023,1 - -
23.05.2020 17:00:00 27,6 15,3 16 9 O 1023,1 40 -
23.05.2020 16:00:00 27,6 16,0 16 9 O 1023,4 - -
23.05.2020 15:00:00 28,2 15,2 16 9 OZO 1023,8 - -
23.05.2020 14:00:00 27,8 14,1 15 8 OZO 1024,2 40 -
23.05.2020 13:00:00 28,2 14,4 15 8 OZO 1024,6 - -
23.05.2020 12:00:00 27,7 14,2 11 6 OZO 1024,9 - -
23.05.2020 11:00:00 26,9 12,2 8 4 O 1024,7 45 -
23.05.2020 10:00:00 24,7 13,7 0 0 N 1024,8 - -
23.05.2020 09:00:00 21,1 14,0 2 1 W 1024,7 - -
23.05.2020 08:00:00 18,3 13,6 4 2 WNW 1024,6 50 -
23.05.2020 07:00:00 16,1 13,2 4 2 W 1024,4 - -
23.05.2020 06:00:00 16,8 13,3 4 2 W 1024,4 - -
23.05.2020 05:00:00 16,9 13,6 5 3 W 1024,3 40 -
23.05.2020 04:00:00 17,5 13,8 4 2 W 1024,5 - -
23.05.2020 03:00:00 18,5 14,0 8 4 NW 1024,6 - -
23.05.2020 02:00:00 18,9 14,0 4 2 W 1024,9 45 -
23.05.2020 01:00:00 19,2 14,5 9 5 WNW 1025,0 - -
23.05.2020 00:00:00 22,0 14,4 8 4 N 1024,9 - -
22.05.2020 23:00:00 22,4 14,8 11 6 NO 1024,8 45 -
22.05.2020 22:00:00 22,7 15,0 13 7 NO 1024,0 - -
22.05.2020 21:00:00 23,4 15,4 13 7 ONO 1023,4 - -
22.05.2020 20:00:00 25,0 15,6 16 9 ONO 1022,8 50 -
22.05.2020 19:00:00 27,3 15,0 13 7 O 1022,3 50 -
22.05.2020 18:00:00 27,4 15,7 16 9 O 1022,4 - -
22.05.2020 17:00:00 28,2 15,2 18 10 O 1022,3 40 -
22.05.2020 16:00:00 28,6 17,3 18 10 O 1022,4 - -
22.05.2020 15:00:00 30,2 13,3 18 10 O 1022,6 - -
22.05.2020 14:00:00 30,2 13,6 13 7 ONO 1022,7 40 -
22.05.2020 13:00:00 28,9 14,1 11 6 O 1022,7 - -
22.05.2020 12:00:00 28,5 13,9 9 5 O 1022,9 - -
22.05.2020 11:00:00 26,6 14,5 8 4 O 1022,7 40 -
22.05.2020 10:00:00 25,2 15,0 8 4 O 1022,5 - -
22.05.2020 09:00:00 22,8 15,6 5 3 NNO 1022,0 - -
22.05.2020 08:00:00 20,0 13,9 0 0 N 1021,6 30 -
22.05.2020 07:00:00 18,0 13,3 0 0 N 1020,8 - -
22.05.2020 06:00:00 17,4 13,4 0 0 N 1020,4 - -
22.05.2020 05:00:00 17,5 13,4 9 5 W 1020,2 35 -
22.05.2020 04:00:00 17,9 14,0 9 5 WZW 1020,1 - -
22.05.2020 03:00:00 18,5 14,4 4 2 WNW 1020,3 - -
22.05.2020 02:00:00 19,1 14,4 8 4 W 1020,8 30 -
22.05.2020 01:00:00 19,6 15,3 9 5 WZW 1021,1 - -
22.05.2020 00:00:00 20,7 15,7 0 0 N 1021,1 - -
21.05.2020 23:00:00 21,8 15,4 8 4 O 1020,9 30 -
21.05.2020 22:00:00 22,6 15,2 8 4 O 1020,0 - -
21.05.2020 21:00:00 24,0 15,0 9 5 ONO 1019,5 - -
21.05.2020 20:00:00 25,2 14,3 13 7 ONO 1018,8 30 -
21.05.2020 19:00:00 26,5 15,8 13 7 O 1018,4 - -
21.05.2020 18:00:00 26,8 13,1 16 9 ZO 1018,6 - -
21.05.2020 17:00:00 28,1 12,0 22 12 ZO 1018,5 30 -
21.05.2020 16:00:00 29,3 10,7 21 11 OZO 1018,7 - -
21.05.2020 15:00:00 29,6 11,4 15 8 OZO 1018,8 30 0,0
21.05.2020 14:00:00 30,5 10,6 16 9 OZO 1018,9 35 -
21.05.2020 13:00:00 30,3 10,4 8 4 ZO 1019,2 - -
21.05.2020 12:00:00 29,0 11,2 2 1 N 1019,6 - -
21.05.2020 11:00:00 26,4 11,7 0 0 N 1019,7 3,5 0,0
21.05.2020 10:00:00 23,9 13,1 5 3 NW 1019,8 - -
21.05.2020 09:00:00 20,6 12,4 9 5 NW 1019,6 - -
21.05.2020 08:00:00 18,1 12,2 9 5 WNW 1019,2 50 -
21.05.2020 07:00:00 15,4 12,3 5 3 WNW 1018,6 - -
21.05.2020 06:00:00 15,6 12,5 8 4 NW 1018,2 - -
21.05.2020 05:00:00 15,5 12,8 8 4 WNW 1017,9 20 -
21.05.2020 04:00:00 16,4 13,7 5 3 W 1017,7 - -
21.05.2020 03:00:00 17,6 14,1 4 2 Z 1017,8 - -
21.05.2020 02:00:00 17,7 15,0 9 5 W 1017,7 20 -
21.05.2020 01:00:00 18,1 15,0 4 2 W 1017,8 - -
21.05.2020 00:00:00 19,6 15,3 8 4 NW 1017,6 - -
20.05.2020 23:00:00 20,9 16,8 0 0 N 1017,1 20 -
20.05.2020 22:00:00 21,5 17,0 8 4 O 1016,3 - -
20.05.2020 21:00:00 22,6 15,1 9 5 O 1015,5 - -
20.05.2020 20:00:00 24,1 14,7 15 8 O 1015,0 25 -
20.05.2020 19:00:00 25,1 15,3 16 9 O 1014,5 - -
20.05.2020 18:00:00 26,6 15,4 16 9 O 1014,2 - -
20.05.2020 17:00:00 28,0 13,3 16 9 OZO 1014,1 35 -
20.05.2020 16:00:00 28,7 12,4 21 11 OZO 1014,1 - -
20.05.2020 15:00:00 28,6 11,8 18 10 O 1014,5 - -
20.05.2020 14:00:00 28,8 11,7 18 10 O 1014,8 30 -
20.05.2020 13:00:00 28,5 11,2 13 7 ZO 1015,1 - -
20.05.2020 12:00:00 28,2 11,8 8 4 ZO 1015,8 - -
20.05.2020 11:00:00 27,0 12,2 4 2 ZZW 1015,9 30 -

tt = temperatuur
td = dauwpunt
ff = windsnelheid
dd = windrichting
ppp = luchtdruk
vv = zicht
rr = neerslag

Weerstations in de omgeving